Hourly Weather Kabul

Today, 27 September, Sunday

Time Temperature Precipitation Wind Pressure Humidity
00:00 +16°C° 0.1 mm 1 mps 608 mmHg 50%
01:00 +16°C° 0.1 mm 1 mps 607 mmHg 51%
02:00 +14°C° 0.1 mm 0 mps 607 mmHg 53%
03:00 +14°C° 0 mm 0 mps 607 mmHg 53%
04:00 +13°C° 0 mm 0 mps 607 mmHg 54%
05:00 +13°C° 0 mm 0 mps 607 mmHg 52%
06:00 +14°C° 0 mm 0 mps 608 mmHg 48%
07:00 +15°C° 0 mm 0 mps 609 mmHg 43%
08:00 +16°C° 0 mm 0 mps 609 mmHg 39%
09:00 +19°C° 0 mm 1 mps 610 mmHg 35%
10:00 +21°C° 0 mm 1 mps 610 mmHg 31%
11:00 +22°C° 0 mm 1 mps 610 mmHg 27%
12:00 +23°C° 0 mm 1 mps 610 mmHg 24%
13:00 +24°C° 0 mm 2 mps 610 mmHg 22%
14:00 +25°C° 0 mm 2 mps 610 mmHg 19%
15:00 +25°C° 0 mm 3 mps 610 mmHg 21%
16:00 +25°C° 0 mm 4 mps 610 mmHg 23%
17:00 +25°C° 0 mm 5 mps 610 mmHg 25%
18:00 +22°C° 0 mm 4 mps 610 mmHg 32%
19:00 +21°C° 0 mm 3 mps 610 mmHg 38%
20:00 +20°C° 0 mm 2 mps 610 mmHg 44%
21:00 +19°C° 0 mm 2 mps 610 mmHg 47%
22:00 +19°C° 0 mm 1 mps 610 mmHg 49%
23:00 +19°C° 0 mm 1 mps 610 mmHg 51%

Tomorrow, 28 September, Monday

Time Temperature Precipitation Wind Pressure Humidity
00:00 +18°C° 0.1 mm 1 mps 609 mmHg 52%
01:00 +16°C° 0.1 mm 1 mps 609 mmHg 54%
02:00 +16°C° 0.1 mm 1 mps 609 mmHg 55%
03:00 +14°C° 0 mm 0 mps 609 mmHg 56%
04:00 +14°C° 0 mm 0 mps 608 mmHg 57%
05:00 +13°C° 0 mm 0 mps 608 mmHg 58%
06:00 +14°C° 0 mm 0 mps 609 mmHg 53%
07:00 +15°C° 0 mm 0 mps 610 mmHg 49%
08:00 +16°C° 0 mm 0 mps 610 mmHg 45%
09:00 +17°C° 0 mm 0 mps 611 mmHg 42%
10:00 +21°C° 0 mm 1 mps 611 mmHg 39%
11:00 +22°C° 0 mm 1 mps 612 mmHg 36%
12:00 +23°C° 0.1 mm 1 mps 611 mmHg 32%
13:00 +24°C° 0.1 mm 2 mps 611 mmHg 27%
14:00 +25°C° 0.1 mm 2 mps 611 mmHg 23%
15:00 +25°C° 0 mm 3 mps 611 mmHg 23%
16:00 +25°C° 0 mm 4 mps 611 mmHg 22%
17:00 +25°C° 0 mm 5 mps 611 mmHg 22%
18:00 +22°C° 0.1 mm 4 mps 611 mmHg 28%
19:00 +21°C° 0.1 mm 4 mps 611 mmHg 34%
20:00 +19°C° 0.1 mm 4 mps 611 mmHg 40%
21:00 +18°C° 0.2 mm 3 mps 611 mmHg 43%
22:00 +17°C° 0.2 mm 2 mps 610 mmHg 46%
23:00 +16°C° 0.2 mm 1 mps 610 mmHg 49%

Day after tomorrow, 29 September, Tuesday

Time Temperature Precipitation Wind Pressure Humidity
00:00 +16°C° 0.1 mm 1 mps 610 mmHg 51%
01:00 +15°C° 0.1 mm 1 mps 609 mmHg 52%
02:00 +14°C° 0.1 mm 0 mps 609 mmHg 53%
03:00 +14°C° 0.1 mm 0 mps 609 mmHg 55%
04:00 +13°C° 0.1 mm 0 mps 608 mmHg 56%
05:00 +13°C° 0.1 mm 0 mps 608 mmHg 57%
06:00 +14°C° 0 mm 0 mps 609 mmHg 53%
07:00 +15°C° 0 mm 0 mps 609 mmHg 48%
08:00 +16°C° 0 mm 0 mps 610 mmHg 43%
09:00 +19°C° 0 mm 1 mps 610 mmHg 40%
10:00 +21°C° 0 mm 1 mps 610 mmHg 36%
11:00 +22°C° 0 mm 1 mps 610 mmHg 33%
12:00 +23°C° 0 mm 2 mps 610 mmHg 29%
13:00 +24°C° 0 mm 3 mps 611 mmHg 25%
14:00 +25°C° 0 mm 4 mps 611 mmHg 21%
15:00 +25°C° 0 mm 4 mps 610 mmHg 21%
16:00 +23°C° 0 mm 4 mps 610 mmHg 22%
17:00 +23°C° 0 mm 4 mps 610 mmHg 22%
18:00 +22°C° 0 mm 4 mps 610 mmHg 29%
19:00 +20°C° 0 mm 3 mps 610 mmHg 36%
20:00 +18°C° 0 mm 2 mps 610 mmHg 42%
21:00 +18°C° 0 mm 2 mps 609 mmHg 47%
22:00 +17°C° 0 mm 2 mps 609 mmHg 51%
23:00 +16°C° 0 mm 2 mps 609 mmHg 55%

30 September, Wednesday

Time Temperature Precipitation Wind Pressure Humidity
00:00 +16°C° 0 mm 1 mps 608 mmHg 57%
01:00 +15°C° 0 mm 1 mps 608 mmHg 59%
02:00 +15°C° 0 mm 1 mps 607 mmHg 61%
03:00 +14°C° 0 mm 1 mps 607 mmHg 63%
04:00 +13°C° 0 mm 0 mps 607 mmHg 65%
05:00 +12°C° 0 mm 0 mps 607 mmHg 67%
06:00 +13°C° 0 mm 0 mps 607 mmHg 63%
07:00 +14°C° 0 mm 0 mps 608 mmHg 59%
08:00 +15°C° 0 mm 0 mps 609 mmHg 55%
09:00 +18°C° 0 mm 1 mps 609 mmHg 47%
10:00 +19°C° 0 mm 1 mps 609 mmHg 40%
11:00 +20°C° 0 mm 2 mps 610 mmHg 32%
12:00 +21°C° 0 mm 2 mps 610 mmHg 29%
13:00 +21°C° 0 mm 3 mps 610 mmHg 26%
14:00 +22°C° 0 mm 3 mps 609 mmHg 22%
15:00 +22°C° 0 mm 4 mps 609 mmHg 22%
16:00 +22°C° 0 mm 4 mps 609 mmHg 21%
17:00 +22°C° 0 mm 4 mps 609 mmHg 21%
18:00 +21°C° 0.1 mm 4 mps 609 mmHg 26%
19:00 +20°C° 0.1 mm 3 mps 609 mmHg 31%
20:00 +18°C° 0.1 mm 2 mps 609 mmHg 35%
21:00 +17°C° 0.1 mm 2 mps 609 mmHg 40%
22:00 +16°C° 0.1 mm 1 mps 608 mmHg 44%
23:00 +15°C° 0.1 mm 1 mps 608 mmHg 48%

1 October, Thursday

Time Temperature Precipitation Wind Pressure Humidity
00:00 +15°C° 0 mm 1 mps 608 mmHg 50%
01:00 +14°C° 0 mm 1 mps 608 mmHg 51%
02:00 +14°C° 0 mm 1 mps 607 mmHg 53%
03:00 +13°C° 0 mm 1 mps 607 mmHg 48%
04:00 +13°C° 0 mm 1 mps 607 mmHg 44%
05:00 +13°C° 0 mm 1 mps 607 mmHg 40%
06:00 +14°C° 0 mm 1 mps 607 mmHg 35%
07:00 +15°C° 0 mm 1 mps 608 mmHg 30%
08:00 +16°C° 0 mm 1 mps 609 mmHg 25%
09:00 +18°C° 0 mm 1 mps 609 mmHg 24%
10:00 +20°C° 0 mm 1 mps 609 mmHg 23%
11:00 +21°C° 0 mm 1 mps 610 mmHg 21%
12:00 +22°C° 0 mm 1 mps 609 mmHg 20%
13:00 +23°C° 0 mm 1 mps 609 mmHg 18%
14:00 +24°C° 0 mm 2 mps 609 mmHg 16%
15:00 +24°C° 0 mm 2 mps 609 mmHg 16%
16:00 +24°C° 0 mm 2 mps 609 mmHg 16%
17:00 +24°C° 0 mm 3 mps 609 mmHg 16%
18:00 +21°C° 0 mm 2 mps 609 mmHg 21%
19:00 +20°C° 0 mm 2 mps 609 mmHg 27%
20:00 +19°C° 0 mm 1 mps 609 mmHg 33%
21:00 +19°C° 0 mm 1 mps 609 mmHg 34%
22:00 +18°C° 0 mm 1 mps 609 mmHg 36%
23:00 +16°C° 0 mm 1 mps 608 mmHg 37%

2 October, Friday

Time Temperature Precipitation Wind Pressure Humidity
00:00 +15°C° 0 mm 0 mps 608 mmHg 38%
01:00 +14°C° 0 mm 0 mps 608 mmHg 38%
02:00 +14°C° 0 mm 0 mps 607 mmHg 39%
03:00 +13°C° 0 mm 0 mps 607 mmHg 38%
04:00 +13°C° 0 mm 0 mps 607 mmHg 37%
05:00 +13°C° 0 mm 1 mps 607 mmHg 36%
06:00 +15°C° 0 mm 1 mps 607 mmHg 32%
07:00 +16°C° 0 mm 1 mps 608 mmHg 28%
08:00 +18°C° 0 mm 1 mps 609 mmHg 24%
09:00 +19°C° 0 mm 1 mps 609 mmHg 23%
10:00 +20°C° 0 mm 1 mps 609 mmHg 21%
11:00 +22°C° 0 mm 1 mps 610 mmHg 20%
12:00 +22°C° 0 mm 1 mps 609 mmHg 17%
13:00 +23°C° 0 mm 2 mps 609 mmHg 15%
14:00 +24°C° 0 mm 2 mps 609 mmHg 12%
15:00 +24°C° 0 mm 2 mps 609 mmHg 13%
16:00 +24°C° 0 mm 3 mps 609 mmHg 13%
17:00 +24°C° 0 mm 3 mps 609 mmHg 14%
18:00 +21°C° 0 mm 3 mps 609 mmHg 20%
19:00 +19°C° 0 mm 2 mps 609 mmHg 26%
20:00 +18°C° 0 mm 2 mps 609 mmHg 32%
21:00 +17°C° 0 mm 2 mps 609 mmHg 34%
22:00 +16°C° 0 mm 1 mps 609 mmHg 35%
23:00 +15°C° 0 mm 1 mps 608 mmHg 37%
Show more